www.pogodaiklimat.ru

Погода и климат >> Архив погоды >> Финляндия >> Оулу


ПОГОДА в Оулу

  • Прогноз погоды в Оулу
  • Монитор погоды в Оулу

АРХИВ ПОГОДЫ в Оулу

Время (UTC), дата Ветер
(напр.,м/с)
 
Видим.   Явления Облачность Т
(С)
Тd
(С)
f
(%)
Тe
(С)
Тes
(С)
Комфортность P
(гПа)
Po
(гПа)
Тmin
(С)
Tmax
(С)
R
(мм)
R24
(мм)
S
(см)
22 15.07 СВ 3-5
{5}
50 км н/о +12.4 +8.3 76 +11 +11 1010.9 1010.4
23 15.07 В 3-4
{5}
50 км н/о +11.8 +8.7 81 +10 +10 1011.1 1010.6
00 16.07 В 3-4
{5}
50 км н/о +11.8 +8.7 81 +10 +10 1011.5 1011.0
01 16.07 В 4-6
{6}
50 км н/о +11.8 +8.9 82 +10 +10 1011.6 1011.1
02 16.07 В 4 50 км н/о +11.7 +8.6 81 +10 +10 1011.8 1011.3
03 16.07 В 4-6
{6}
50 км н/о +11.8 +8.5 80 +10 +10 1012.1 1011.6
04 16.07 В 4 50 км н/о +11.9 +8.9 82 +10 +10 1012.4 1011.9
05 16.07 В 3-4
{6}
50 км н/о +12.7 +8.7 77 +11 +11 1012.7 1012.1
06 16.07 СВ 3-4
{4}
50 км н/о +13.3 +9.0 75 +12 +12 1012.6 1012.0 +11.3 +15.7
07 16.07 СВ 3-5
{5}
45 км н/о +14.6 +8.8 68 +14 +14 1012.7 1012.2
08 16.07 СВ 3 35 км н/о +15.1 +7.7 61 +14 +14 1012.4 1011.9
09 16.07 В 2-4
{5}
45 км н/о +16.9 +6.9 52 +17 +17 1012.6 1012.1
10 16.07 С 2-4
{5}
45 км н/о +16.0 +7.1 55 +16 +16 1012.8 1012.3
11 16.07 СЗ 4 40 км н/о +15.9 +9.0 64 +15 +15 1012.7 1012.1
12 16.07 СЗ 6-7
{7}
40 км н/о +16.0 +9.9 67 +15 +15 1012.5 1012.0
14 16.07 С 6-8
{8}
45 км н/о +17.1 +7.7 54 +16 +16 1012.2 1011.7
15 16.07 С 5-7
{9}
45 км н/о +17.6 +8.3 54 +17 +17 1012.3 1011.8
16 16.07 С 4 50 км н/о +17.8 +7.0 49 +18 +18 1012.5 1012.0
17 16.07 С 5 50 км н/о +17.5 +8.8 57 +17 +17 1012.6 1012.1
18 16.07 СВ 3-4
{6}
50 км н/о +17.4 +7.3 51 +17 +17 1012.9 1012.4 +13.3 +17.8
19 16.07 СВ 3-4
{4}
50 км н/о +17.1 +7.2 52 +17 +17 1012.9 1012.4
20 16.07 СВ 3-3
{4}
50 км н/о +15.8 +8.3 61 +15 +15 1013.0 1012.5
21 16.07 СВ 3-3
{3}
50 км н/о +14.9 +8.5 66 +14 +14 1013.2 1012.7
22 16.07 В 3-4
{4}
50 км н/о +14.4 +8.6 68 +14 +14 1013.2 1012.6
23 16.07 В 3-4
{4}
50 км н/о +13.5 +8.4 71 +12 +12 1013.1 1012.6
00 17.07 В 3-4
{5}
50 км н/о +12.3 +8.3 77 +11 +11 1013.1 1012.6
01 17.07 В 3 50 км н/о +11.7 +8.4 80 +10 +10 1013.0 1012.5
02 17.07 В 2 50 км н/о +11.9 +8.6 80 +11 +11 1012.9 1012.4
03 17.07 ЮВ 1-2
{3}
35 км н/о +12.7 +9.0 78 +13 +13 1012.8 1012.2
04 17.07 ЮВ 2-2
{3}
50 км н/о +13.0 +8.7 75 +12 +12 1012.8 1012.3
05 17.07 СВ 1 50 км н/о +13.2 +9.7 79 +13 +13 1012.7 1012.2
06 17.07 Ю 2-3
{4}
45 км н/о +14.2 +10.5 78 +14 +14 1012.8 1012.3 +11.5 +17.5
07 17.07 Ю 2-1
{3}
45 км н/о +14.5 +10.5 77 +14 +14 1012.8 1012.3
08 17.07 штиль 0-2
{2}
45 км н/о +15.2 +9.7 70 +15 +15 1012.7 1012.2
09 17.07 Ю 2-2
{2}
35 км н/о +15.6 +10.4 71 +16 +16 1012.7 1012.2
10 17.07 Ю 3 40 км н/о +16.7 +10.8 68 +16 +16 1012.7 1012.2
11 17.07 Ю 3 50 км н/о +17.0 +10.5 66 +17 +17 1012.5 1012.0
12 17.07 Ю 6-7
{7}
50 км н/о +16.5 +10.5 68 +15 +15 1012.5 1012.0
13 17.07 Ю 3 50 км н/о +16.5 +10.1 66 +16 +16 1012.7 1012.2
14 17.07 В 2 45 км н/о +15.8 +10.7 72 +16 +16 1012.7 1012.2
15 17.07 Ю 2-3
{5}
35 км слаб. дождь {морось} н/о +15.0 +11.4 79 +15 +15 1012.8 1012.3
16 17.07 СЗ 1 50 км в посл. час дождь н/о +15.5 +10.1 70 +16 +16 1012.6 1012.0
17 17.07 СЗ 2 40 км н/о +15.8 +10.5 71 +16 +16 1012.4 1011.9
18 17.07 С 3-3
{3}
50 км {дождь, морось} н/о +15.9 +10.3 69 +15 +15 1012.5 1012.0 +14.0 +17.7
19 17.07 С 3 50 км н/о +15.8 +10.5 71 +15 +15 1012.6 1012.1
20 17.07 СВ 2 50 км н/о +14.2 +10.8 80 +14 +14 1012.8 1012.3
21 17.07 СВ 3-4
{4}
50 км н/о +13.4 +11.0 85 +12 +12 1013.0 1012.5
22 17.07 СВ 3-3
{4}
50 км н/о +13.3 +10.9 85 +12 +12 1013.2 1012.7
23 17.07 В 3 50 км н/о +12.5 +10.5 88 +11 +11 1013.3 1012.7
00 18.07 В 3-4
{4}
50 км н/о +11.4 +9.7 89 +10 +10 1013.5 1012.9
01 18.07 В 2 40 км н/о +11.0 +9.8 92 +10 +10 1013.6 1013.0
02 18.07 В 3 45 км н/о +10.7 +9.4 92 +9 +9 1013.8 1013.2
03 18.07 В 2-3
{3}
45 км н/о +11.6 +9.7 88 +10 +10 1013.6 1013.1
04 18.07 В 2 35 км н/о +12.0 +9.9 87 +11 +11 1013.7 1013.2
05 18.07 СВ 2 35 км н/о +13.0 +10.4 84 +12 +12 1013.9 1013.4
06 18.07 В 2-4
{4}
40 км н/о +14.9 +10.4 74 +15 +15 1013.9 1013.4 +10.1 +16.0
07 18.07 СВ 3 40 км н/о +15.1 +10.1 72 +14 +14 1013.9 1013.4
08 18.07 СВ 3 35 км н/о +15.9 +10.0 68 +15 +15 1013.9 1013.4
09 18.07 СВ 3-5
{6}
40 км н/о +15.9 +10.4 70 +15 +15 1013.9 1013.4
10 18.07 В 2 35 км н/о +16.6 +10.8 69 +17 +17 1013.9 1013.4
11 18.07 В 2 40 км н/о +16.9 +11.1 69 +17 +17 1013.8 1013.2
12 18.07 В 3-6
{6}
35 км н/о +18.2 +11.2 64 +19 +19 1013.7 1013.2
13 18.07 СВ 2 45 км н/о +17.4 +11.0 66 +18 +18 1013.5 1013.0
14 18.07 СЗ 6 45 км н/о +16.8 +12.4 75 +16 +16 1013.4 1012.9
15 18.07 СЗ 5-6
{7}
45 км в посл. час морось {ливн. осадки, дождь} н/о +17.1 +12.3 73 +16 +16 1013.3 1012.8
16 18.07 СВ 3 40 км н/о +17.7 +11.5 67 +18 +18 1013.4 1012.9
17 18.07 С 5 50 км н/о +17.8 +11.1 65 +17 +17 1013.4 1012.8
18 18.07 СВ 3-5
{6}
50 км {ливн. осадки, дождь} н/о +17.8 +11.1 65 +18 +18 1013.2 1012.7 +14.4 +18.8
19 18.07 СВ 3 50 км н/о +17.2 +10.9 66 +17 +17 1013.4 1012.8
20 18.07 СВ 3-4
{5}
50 км н/о +16.1 +11.0 72 +16 +16 1013.6 1013.0
21 18.07 СВ 3-4
{5}
50 км {ливн. осадки, дождь} н/о +14.8 +10.9 77 +14 +14 1013.9 1013.4
22 18.07 СВ 3-5
{5}
50 км н/о +13.6 +10.9 84 +12 +12 1014.1 1013.5
23 18.07 СВ 2 45 км н/о +12.8 +10.7 87 +12 +12 1014.2 1013.7
00 19.07 СВ 3-5
{5}
50 км {ливн. осадки, дождь} н/о +12.1 +10.4 89 +10 +10 1014.2 1013.6
01 19.07 СВ 2 50 км н/о +11.5 +10.2 92 +10 +10 1014.2 1013.7
02 19.07 СВ 2-3
{3}
50 км н/о +11.4 +10.2 92 +10 +10 1014.1 1013.6
03 19.07 СВ 2-3
{3}
40 км н/о +11.8 +10.3 91 +11 +11 1014.1 1013.6
04 19.07 С 2 50 км н/о +12.9 +10.8 87 +12 +12 1014.2 1013.6
05 19.07 С 4 40 км н/о +13.0 +11.2 89 +11 +11 1014.0 1013.5
06 19.07 С 4-4
{4}
40 км н/о +13.0 +11.1 88 +11 +11 1014.0 1013.5 +11.3 +17.8
07 19.07 С 3 45 км н/о +13.6 +10.8 83 +12 +12 1014.1 1013.6
08 19.07 З 2 45 км н/о +14.5 +11.2 81 +14 +14 1014.0 1013.5
09 19.07 СЗ 5-6
{6}
40 км н/о +15.1 +12.5 84 +14 +14 1013.9 1013.4
10 19.07 СЗ 6 45 км н/о +15.6 +12.0 79 +14 +14 1013.8 1013.3
11 19.07 СЗ 6 40 км н/о +16.5 +12.3 76 +15 +15 1013.6 1013.1
12 19.07 СЗ 8-8
{8}
50 км н/о +16.8 +12.4 75 +15 +15 1013.1 1012.6
13 19.07 СЗ 9 40 км н/о +16.6 +12.3 76 +15 +15 1012.9 1012.3
14 19.07 СЗ 9-10
{10}
45 км н/о +16.8 +12.9 78 +15 +15 1012.6 1012.1
15 19.07 СЗ 9-10
{11}
40 км н/о +17.1 +13.7 80 +16 +16 1012.7 1012.2
16 19.07 СЗ 8 50 км н/о +17.1 +14.0 82 +16 +16 1012.6 1012.1
17 19.07 С 8 50 км н/о +17.5 +13.7 78 +16 +16 1012.7 1012.1
18 19.07 С 6-7
{8}
н/о н/о +17.4 +13.9 80 +17 +17 1012.8 1012.3 +13.0 +17.6
19 19.07 С 4 50 км н/о +17.4 +14.6 84 +17 +17 1012.9 1012.4
20 19.07 С 2-3
{4}
50 км н/о +17.1 +13.6 80 +17 +17 1013.4 1012.9
21 19.07 СВ 2-4
{4}
50 км н/о +16.6 +13.3 81 +17 +17 1013.7 1013.2
22 19.07 СВ 2 50 км н/о +15.6 +13.8 89 +15 +15 1013.8 1013.3
23 19.07 СВ 2-3
{3}
50 км н/о +14.8 +13.0 89 +14 +14 1014.0 1013.5
00 20.07 СВ 3-4
{4}
45 км н/о +13.8 +12.3 91 +13 +13 1014.2 1013.7
01 20.07 СВ 2-4
{4}
35 км н/о +13.3 +12.1 92 +13 +13 1014.4 1013.9
02 20.07 В 3-4
{4}
35 км н/о +13.4 +11.8 90 +12 +12 1014.5 1013.9
03 20.07 В 1-2
{4}
40 км н/о +14.9 +12.2 84 +15 +15 1014.5 1014.0
04 20.07 СВ 1-1
{2}
35 км н/о +14.7 +12.4 86 +15 +15 1014.6 1014.1
05 20.07 З 1 30 км н/о +15.7 +13.0 84 +16 +16 1014.8 1014.3
06 20.07 З 2 35 км н/о +16.0 +13.1 83 +16 +16 1015.0 1014.5 +13.1 +17.7
07 20.07 З 2 35 км н/о +16.5 +13.5 82 +17 +17 1015.3 1014.8
08 20.07 СЗ 3-4
{4}
40 км н/о +17.0 +13.5 80 +17 +17 1015.2 1014.7
09 20.07 СЗ 5-5
{5}
35 км н/о +17.3 +13.6 79 +17 +17 1015.4 1014.9
10 20.07 СЗ 5 50 км н/о +17.4 +13.8 79 +17 +17 1015.5 1015.0
11 20.07 СЗ 6-7
{7}
45 км н/о +17.6 +13.4 76 +17 +17 1015.6 1015.1
12 20.07 СЗ 5-6
{7}
45 км н/о +18.0 +13.3 74 +18 +18 1015.8 1015.3
13 20.07 СЗ 6 45 км н/о +18.1 +13.2 73 +18 +18 1015.7 1015.2
14 20.07 СЗ 4 40 км н/о +18.3 +13.5 74 +19 +19 1015.9 1015.3
15 20.07 СЗ 5-5
{6}
45 км н/о +18.5 +13.9 75 +19 +19 1015.7 1015.1
16 20.07 С 5 50 км н/о +18.5 +13.8 74 +19 +19 1015.7 1015.1
17 20.07 СЗ 5 45 км н/о +18.4 +13.7 74 +19 +19 1015.7 1015.2
18 20.07 СЗ 4-5
{6}
45 км н/о +18.1 +14.4 79 +18 +18 1015.7 1015.2 +16.0 +18.7
19 20.07 С 4 50 км н/о +18.3 +14.0 76 +19 +19 1016.0 1015.5
20 20.07 С 2-2
{4}
50 км н/о +18.2 +12.5 69 +19 +19 1016.2 1015.7
21 20.07 С 1-1
{2}
50 км {ливн. осадки, дождь} н/о +16.9 +13.6 81 +18 +18 1016.5 1015.9
22 20.07 З 1 30 км н/о +17.0 +14.0 82 +18 +18 1016.8 1016.3
23 20.07 В 1 50 км н/о +16.0 +13.0 82 +17 +17 1016.8 1016.2
00 21.07 Ю 1-2
{2}
35 км {ливн. осадки, дождь} н/о +15.3 +12.8 85 +16 +16 1017.0 1016.5
01 21.07 ЮВ 1-2
{2}
40 км н/о +14.8 +12.2 84 +15 +15 1017.0 1016.5
02 21.07 ЮВ 4 50 км н/о +14.1 +12.3 89 +13 +13 1016.9 1016.4
03 21.07 ЮВ 3-4
{4}
45 км н/о +14.2 +11.8 85 +13 +13 1017.2 1016.6
04 21.07 ЮВ 3 45 км н/о +14.7 +11.9 83 +14 +14 1017.3 1016.8
05 21.07 ЮВ 3 45 км н/о +16.4 +12.3 77 +16 +16 1017.2 1016.7
06 21.07 ЮВ 3-3
{4}
40 км н/о +18.4 +12.6 69 +19 +19 1017.3 1016.8 +13.9 +18.4
07 21.07 ЮВ 2 40 км н/о +19.7 +12.3 62 +22 +22 комфорт 1017.4 1016.9
08 21.07 Ю 1 30 км н/о +22.5 +11.3 49 +25 +25 комфорт 1017.5 1017.0
09 21.07 С 2-3
{3}
45 км н/о +19.8 +11.9 60 +22 +22 комфорт 1017.3 1016.8
10 21.07 СЗ 3 35 км н/о +20.1 +13.4 65 +22 +22 комфорт 1017.3 1016.8
11 21.07 СЗ 4 40 км н/о +20.2 +13.6 66 +22 +22 комфорт 1017.3 1016.8
12 21.07 СЗ 4-4
{4}
40 км н/о +20.3 +14.8 71 +23 +23 комфорт 1017.2 1016.7
13 21.07 СЗ 3 40 км н/о +20.3 +16.4 78 +24 +24 комфорт 1017.0 1016.5
14 21.07 СЗ 5 50 км н/о +20.5 +15.1 71 +23 +23 комфорт 1016.8 1016.3
15 21.07 СЗ 4-5
{5}
45 км н/о +20.6 +16.0 75 +24 +24 комфорт 1016.5 1016.0
16 21.07 СЗ 3 40 км н/о +20.7 +16.2 75 +24 +24 комфорт 1016.4 1015.9
17 21.07 С 3-3
{4}
50 км н/о +21.0 +16.6 76 +25 +25 комфорт 1016.1 1015.6
18 21.07 С 2-2
{3}
50 км н/о +21.5 +17.4 77 +26 +26 душно 1016.0 1015.5 +18.3 +22.6
19 21.07 С 2-2
{2}
50 км н/о +21.1 +17.2 78 +25 +25 комфорт 1016.0 1015.5
20 21.07 С 1-2
{2}
50 км н/о +20.6 +17.3 81 +25 +25 комфорт 1016.2 1015.7
21 21.07 В 2-3
{3}
24 км н/о +20.9 +12.6 59 +24 +24 комфорт 1016.2 1015.7
22 21.07 ЮВ 2-2
{6}
50 км н/о +19.8 +13.1 65 +22 +22 комфорт 1016.3 1015.8
23 21.07 В 2-3
{4}
45 км н/о +19.1 +11.7 62 +21 +21 комфорт 1016.5 1015.9
00 22.07 ЮВ 3-4
{4}
50 км н/о +18.9 +11.0 60 +20 +20 1016.5 1015.9
01 22.07 В 3 50 км н/о +18.3 +10.8 62 +19 +19 1016.4 1015.9
02 22.07 ЮВ 3-5
{5}
50 км н/о +18.3 +9.5 56 +19 +19 1016.4 1015.8
03 22.07 ЮВ 4-5
{6}
40 км н/о +17.6 +9.5 59 +17 +17 1016.2 1015.7
04 22.07 ЮВ 3-5
{5}
45 км н/о +17.8 +10.5 62 +18 +18 1016.1 1015.6
05 22.07 ЮВ 3 35 км н/о +19.4 +11.7 61 +21 +21 комфорт 1016.1 1015.5
06 22.07 ЮВ 2-4
{4}
29 км н/о +22.7 +12.3 52 +25 +25 комфорт 1015.9 1015.4 +17.4 +22.8
07 22.07 ЮВ 3 35 км н/о +24.1 +12.5 48 +26 +26 жарко 1015.8 1015.3
08 22.07 Ю 4 30 км н/о +24.8 +13.9 51 +27 +27 жарко 1015.7 1015.2
09 22.07 Ю 3-5
{5}
45 км н/о +25.9 +11.9 42 +27 +27 жарко 1015.7 1015.2
10 22.07 Ю 3 40 км н/о +25.5 +12.1 43 +27 +27 жарко 1015.7 1015.2
11 22.07 Ю 3 45 км н/о +26.2 +12.3 42 +28 +28 жарко 1015.5 1015.0
12 22.07 Ю 4 35 км н/о +26.6 +13.3 44 +29 +29 жарко 1015.1 1014.5
13 22.07 Ю 3 40 км н/о +26.7 +13.0 43 +28 +28 жарко 1014.7 1014.2
14 22.07 С 5 40 км н/о +23.9 +15.6 60 +27 +27 жарко 1014.6 1014.0
15 22.07 С 3-4
{5}
45 км н/о +23.6 +17.3 68 +27 +27 жарко 1014.4 1013.9
16 22.07 С 2 45 км н/о +23.9 +17.8 69 +28 +28 душно 1014.4 1013.9
17 22.07 СЗ 3 45 км н/о +23.3 +17.9 72 +29 +29 душно 1014.4 1013.8
18 22.07 Ю 3-3
{3}
50 км н/о +24.2 +15.8 59 +27 +27 жарко 1014.3 1013.8 +21.7 +27.4
20 22.07 ЮВ 2-2
{2}
50 км н/о +23.1 +15.3 61 +27 +27 душно 1014.5 1014.0
21 22.07 ЮВ 3-3
{3}
40 км н/о +22.0 +13.3 58 +25 +25 комфорт 1014.9 1014.4
22 22.07 ЮВ 4 50 км н/о +22.1 +11.3 50 +24 +24 комфорт 1015.0 1014.5

 

Местоположение метеостанции Оулу (Финляндия): широта 65.01 долгота 25.39 высота над уровнем моря 3 м.

В архиве по умолчанию представлена погода в Оулу за последнюю неделю. Архивные данные за месяц целиком и за предыдущие месяцы, начиная с января 2011 года, Вы можете получить, выбрав интересующий диапазон дат из раскрывающегося списка и нажав кнопку "Ввод!".


*Определитесь, кто Вы:
робот инопланетянин человек

Внимание! Время в таблицах - всемирное. Для получения местного времени необходимо прибавить поправку, которая равна 1 ч.

Смотрите также архив погоды в соседних городах и на ближайших метеорологических станциях:

Погода в Оулунсало Пеллонпаа (Финляндия) (8 км)
Погода в Хайлуото (Финляндия) (31 км)
Погода на Маяке Marjaniemi (Финляндия) (39 км)
Погода в Ревонлахти (Финляндия) (39 км)
Погода в Раахе Лапалуто (Финляндия) (60 км)
Погода на Гуфускаларе (Исландия) (70 км)
Погода в Кеми (Финляндия) (74 км)
Погода в Ваала Пэлсо (Финляндия) (75 км)
Погода на Маяке Nahkiainen (Финляндия) (83 км)
Погода в Кеми Айос (Финляндия) (84 км)

Пояснения к столбцам:

Ветер - указаны скорость ветра в м/с - средняя за 10 мин, порывы в срок и между сроками (в фигурных скобках) и направление, откуда дует ветер: С - северный, СВ - северо-восточный, В - восточный, ЮВ - юго-восточный, Ю - южный, ЮЗ - юго-западный, З - западный, СЗ - северо-западный.
Видимость - горизонтальная дальность видимости в метрах или километрах. При видимости от 1 до 10 км при отсутствии осадков обычно наблюдается дымка, при ухудшении видимости до 1 км и менее - туман. В сухую погоду видимость может ухудшаться дымом, пылью или мглою.
Явления - указаны атмосферные явления, наблюдавшиеся в срок или в последний час перед сроком; фигурными скобками обозначены явления, наблюдавшиеся между сроками (за 1-3 часа до срока); квадратными скобками обозначены град или гололедные отложения с указанием их диаметра в мм.
Облачность - указаны через наклонную черту общая и нижняя облачность в баллах и высота нижней границы облаков в метрах; квадратными скобками обозначены формы облаков: Ci - перистые, Cs - перисто-слоистые, Cc - перисто-кучевые, Ac - высококучевые, As - высокослоистые, Sc - слоисто-кучевые, Ns - слоисто-дождевые, Cu - кучевые, Cb - кучево-дождевые. Подробнее классификацию облаков см. в Атласе облаков (PDF).
T - Температура воздуха - температура, измеренная на высоте 2 м над землей.
Td - Температура точки росы - температура, при понижении до которой содержащийся в воздухе водяной пар достигнет насыщения.
f - Относительная влажность воздуха - влажноcть воздуха, измеренная на высоте 2 м над землей.
Te - Эффективная температура - температура, которую ощущает одетый по сезону человек в тени. Характеристика душности погоды. При расчете учитывается влияние влажности воздуха и скорости ветра на теплоощущения человека.
Tes - Эффективная температура на солнце - температура, которую ощущает человек, с поправкой на солнечный нагрев. Характеристика знойности погоды. Зависит от высоты солнца над горизонтом, облачности и скорости ветра. Ночью, в пасмурную погоду, а также при ветре 12 м/с и более поправка равна нулю.
P - Атмосферное давление - приведенное к уровню моря атмосферное давление.
Po - Атмосферное давление - измеренное на уровне метеостанции атмосферное давление.
Tmin - Минимальная температура - минимум температуры воздуха на высоте 2 м над землей.
Tmax - Максимальная температура - максимум температуры воздуха на высоте 2 м над землей.
R - Количество осадков - Количество выпавших осадков за период времени, мм. При наведении курсора мыши на число - период времени, за который выпало указанное количество осадков.
R24 - Количество осадков - Количество выпавших осадков за 24 часа, мм.
S - Снежный покров - Высота снежного покрова, см. При наведении курсора мыши на число - состояние снежного покрова и степень покрытия местности в баллах.